This is the latest recevied weather packets stored in our database for station/object KC8SWY-15. If no packets are shown the sender has not sent any weather packets the latest 1 day(s).
| Time | Temp. | Humidity | Pressure | Rain* | Wind** | Luminosity | Snow |
|---|---|---|---|---|---|---|---|
| 1777979970 | 9.44° C | 72% | 1004.6 hPa | 0 mm | 0.89 m/s, 301° | - | - |
| 1777979670 | 9.44° C | 71% | 1004.7 hPa | 0 mm | 0.89 m/s, 271° | - | - |
| 1777979370 | 9.44° C | 71% | 1004.8 hPa | 0 mm | 0.45 m/s, 298° | - | - |
| 1777979070 | 9.44° C | 70% | 1004.7 hPa | 0 mm | 0.45 m/s, 299° | - | - |
| 1777978770 | 9.44° C | 69% | 1004.7 hPa | 0 mm | 0.89 m/s, 309° | - | - |
| 1777978470 | 9.44° C | 69% | 1004.9 hPa | 0 mm | 0.89 m/s, 297° | - | - |
| 1777978170 | 10° C | 68% | 1004.6 hPa | 0 mm | 0.89 m/s, 269° | - | - |
| 1777977878 | 10° C | 67% | 1004.7 hPa | 0 mm | 1.34 m/s, 277° | - | - |
| 1777977570 | 10° C | 65% | 1004.5 hPa | 0 mm | 1.34 m/s, 267° | - | - |
| 1777977270 | 10° C | 65% | 1004.2 hPa | 0 mm | 1.34 m/s, 297° | - | - |
| 1777976970 | 10° C | 65% | 1003.9 hPa | 0 mm | 1.34 m/s, 313° | - | - |
| 1777976670 | 10° C | 64% | 1003.9 hPa | 0 mm | 0.89 m/s, 310° | - | - |
| 1777976370 | 10.56° C | 64% | 1004 hPa | 0 mm | 0.89 m/s, 304° | - | - |
| 1777976070 | 10.56° C | 64% | 1004.2 hPa | 0 mm | 0.89 m/s, 255° | - | - |
| 1777975770 | 10.56° C | 63% | 1003.9 hPa | 0 mm | 1.34 m/s, 300° | - | - |
| 1777975470 | 10.56° C | 62% | 1003.8 hPa | 0 mm | 0.89 m/s, 316° | - | - |
| 1777975170 | 10.56° C | 62% | 1003.6 hPa | 0 mm | 0.89 m/s, 311° | - | - |
| 1777974870 | 10.56° C | 62% | 1003.5 hPa | 0 mm | 1.34 m/s, 291° | - | - |
| 1777974570 | 10.56° C | 62% | 1003.9 hPa | 0 mm | 0.89 m/s, 324° | - | - |
| 1777974270 | 10.56° C | 62% | 1004.2 hPa | 0 mm | 0.89 m/s, 301° | - | - |
* Rain latest hour (hover to see other rain measurements)
** Current wind speed in m/s (hover to see current wind gust speed)